This is the latest recevied weather packets stored in our database for station/object IU5GBO-13. If no packets are shown the sender has not sent any weather packets the latest 10 day(s).
| Time | Temp. | Humidity | Pressure | Rain* | Wind** | Luminosity | Snow |
|---|---|---|---|---|---|---|---|
| 1777726575 | 22.22° C | 31% | 1024.1 hPa | - | - | - | - |
| 1777725975 | 22.78° C | 32% | 1024.2 hPa | - | - | - | - |
| 1777725376 | 22.78° C | 33% | 1024.2 hPa | - | - | - | - |
| 1777724775 | 22.78° C | 32% | 1024.2 hPa | - | - | - | - |
| 1777724175 | 22.78° C | 30% | 1024.2 hPa | - | - | - | - |
| 1777723575 | 23.33° C | 31% | 1024.2 hPa | - | - | - | - |
| 1777722975 | 23.33° C | 29% | 1024.4 hPa | - | - | - | - |
| 1777722375 | 22.78° C | 29% | 1024.4 hPa | - | - | - | - |
| 1777721775 | 22.78° C | 28% | 1024.6 hPa | - | - | - | - |
| 1777721175 | 23.33° C | 27% | 1024.7 hPa | - | - | - | - |
| 1777720575 | 23.33° C | 25% | 1024.7 hPa | - | - | - | - |
| 1777719975 | 23.33° C | 27% | 1024.9 hPa | - | - | - | - |
| 1777719375 | 23.33° C | 28% | 1025.1 hPa | - | - | - | - |
| 1777718775 | 23.33° C | 27% | 1025.2 hPa | - | - | - | - |
| 1777718175 | 23.33° C | 24% | 1025.3 hPa | - | - | - | - |
| 1777717575 | 23.89° C | 24% | 1025.5 hPa | - | - | - | - |
| 1777716975 | 23.89° C | 25% | 1025.4 hPa | - | - | - | - |
| 1777716375 | 23.33° C | 23% | 1025.5 hPa | - | - | - | - |
| 1777715775 | 23.33° C | 24% | 1025.7 hPa | - | - | - | - |
| 1777715175 | 23.89° C | 24% | 1025.7 hPa | - | - | - | - |
| 1777714575 | 23.33° C | 22% | 1025.8 hPa | - | - | - | - |
| 1777713975 | 22.78° C | 23% | 1025.9 hPa | - | - | - | - |
| 1777713375 | 22.78° C | 22% | 1025.8 hPa | - | - | - | - |
| 1777712775 | 22.78° C | 23% | 1026 hPa | - | - | - | - |
| 1777712175 | 21.67° C | 23% | 1026 hPa | - | - | - | - |
* Rain since midnight (hover to see other rain measurements)
** Current wind speed in m/s (hover to see current wind gust speed)